When you browse on this site, cookies collect data to enhance your experience and personalize the content and advertising you see.
Visit our Privacy Policy to learn more. By continuing to use the site, you agree to this use of cookies and data.
  • In United Kingdom
  • List of Countries
  • For 7 days
  • Water Temperature
  • Weather Map
  • Weather Widgets
  • user-avatar
    Login

    Hourly Weather Duesseldorf

    Today, 20 October, Sunday

    Time Temperature Precipitation Wind Pressure Humidity
    00:00 +12°C° 0 mm 1 mps 753 mmHg 90%
    01:00 +12°C° 0.1 mm 1 mps 752 mmHg 90%
    02:00 +12°C° 0.1 mm 1 mps 752 mmHg 90%
    03:00 +12°C° 0.1 mm 1 mps 752 mmHg 90%
    04:00 +11°C° 0.4 mm 0 mps 752 mmHg 91%
    05:00 +11°C° 0.4 mm 0 mps 753 mmHg 91%
    06:00 +11°C° 0.4 mm 0 mps 753 mmHg 92%
    07:00 +13°C° 0 mm 1 mps 753 mmHg 91%
    08:00 +13°C° 0 mm 1 mps 753 mmHg 89%
    09:00 +13°C° 0 mm 1 mps 753 mmHg 88%
    10:00 +13°C° 1.2 mm 2 mps 753 mmHg 89%
    11:00 +13°C° 1.2 mm 2 mps 753 mmHg 91%
    12:00 +13°C° 1.2 mm 2 mps 753 mmHg 93%
    13:00 +13°C° 3.5 mm 2 mps 753 mmHg 94%
    14:00 +12°C° 3.5 mm 3 mps 753 mmHg 95%
    15:00 +12°C° 3.5 mm 3 mps 753 mmHg 95%
    16:00 +14°C° 2.1 mm 2 mps 753 mmHg 96%
    17:00 +14°C° 2.1 mm 2 mps 753 mmHg 96%
    18:00 +14°C° 2.1 mm 2 mps 753 mmHg 96%
    19:00 +14°C° 2.1 mm 2 mps 753 mmHg 97%
    20:00 +14°C° 2.1 mm 1 mps 754 mmHg 97%
    21:00 +14°C° 2.1 mm 1 mps 754 mmHg 98%
    22:00 +14°C° 1 mm 1 mps 754 mmHg 97%
    23:00 +15°C° 1 mm 2 mps 754 mmHg 96%

    Tomorrow, 21 October, Monday

    Time Temperature Precipitation Wind Pressure Humidity
    00:00 +15°C° 1 mm 2 mps 754 mmHg 96%
    01:00 +15°C° 0.1 mm 2 mps 754 mmHg 95%
    02:00 +15°C° 0.1 mm 2 mps 754 mmHg 95%
    03:00 +15°C° 0.1 mm 2 mps 754 mmHg 94%
    04:00 +15°C° 0 mm 2 mps 754 mmHg 94%
    05:00 +14°C° 0 mm 3 mps 755 mmHg 93%
    06:00 +14°C° 0 mm 3 mps 755 mmHg 92%
    07:00 +14°C° 0 mm 4 mps 756 mmHg 86%
    08:00 +14°C° 0 mm 4 mps 756 mmHg 79%
    09:00 +15°C° 0 mm 5 mps 757 mmHg 73%
    10:00 +15°C° 0 mm 5 mps 758 mmHg 70%
    11:00 +15°C° 0 mm 6 mps 758 mmHg 67%
    12:00 +15°C° 0 mm 6 mps 759 mmHg 64%
    13:00 +15°C° 0 mm 6 mps 759 mmHg 65%
    14:00 +14°C° 0 mm 5 mps 759 mmHg 66%
    15:00 +14°C° 0 mm 5 mps 759 mmHg 67%
    16:00 +14°C° 0 mm 5 mps 760 mmHg 68%
    17:00 +13°C° 0 mm 5 mps 760 mmHg 70%
    18:00 +13°C° 0 mm 5 mps 760 mmHg 72%
    19:00 +13°C° 0 mm 5 mps 761 mmHg 75%
    20:00 +13°C° 0 mm 5 mps 761 mmHg 77%
    21:00 +12°C° 0 mm 5 mps 762 mmHg 80%
    22:00 +12°C° 0 mm 5 mps 762 mmHg 80%
    23:00 +12°C° 0 mm 5 mps 763 mmHg 81%

    Day after tomorrow, 22 October, Tuesday

    Time Temperature Precipitation Wind Pressure Humidity
    00:00 +11°C° 0 mm 4 mps 763 mmHg 81%
    01:00 +11°C° 0 mm 4 mps 763 mmHg 84%
    02:00 +10°C° 0 mm 3 mps 764 mmHg 86%
    03:00 +10°C° 0 mm 3 mps 764 mmHg 88%
    04:00 +10°C° 0 mm 3 mps 764 mmHg 89%
    05:00 +9°C° 0 mm 2 mps 764 mmHg 90%
    06:00 +9°C° 0 mm 2 mps 765 mmHg 91%
    07:00 +10°C° 0 mm 2 mps 765 mmHg 88%
    08:00 +12°C° 0 mm 2 mps 765 mmHg 84%
    09:00 +13°C° 0 mm 1 mps 765 mmHg 81%
    10:00 +14°C° 0 mm 1 mps 765 mmHg 76%
    11:00 +15°C° 0 mm 1 mps 765 mmHg 72%
    12:00 +16°C° 0 mm 1 mps 765 mmHg 67%
    13:00 +15°C° 0 mm 1 mps 765 mmHg 68%
    14:00 +15°C° 0 mm 1 mps 765 mmHg 68%
    15:00 +14°C° 0 mm 0 mps 764 mmHg 69%
    16:00 +13°C° 0 mm 0 mps 764 mmHg 73%
    17:00 +12°C° 0 mm 0 mps 764 mmHg 76%
    18:00 +12°C° 0 mm 1 mps 765 mmHg 80%
    19:00 +12°C° 0 mm 1 mps 764 mmHg 82%
    20:00 +11°C° 0 mm 1 mps 764 mmHg 83%
    21:00 +11°C° 0 mm 1 mps 764 mmHg 84%
    22:00 +11°C° 0 mm 1 mps 764 mmHg 84%
    23:00 +11°C° 0 mm 1 mps 764 mmHg 84%

    23 October, Wednesday

    Time Temperature Precipitation Wind Pressure Humidity
    00:00 +11°C° 0 mm 1 mps 763 mmHg 84%
    01:00 +10°C° 0 mm 1 mps 763 mmHg 84%
    02:00 +10°C° 0 mm 1 mps 763 mmHg 84%
    03:00 +10°C° 0 mm 1 mps 762 mmHg 83%
    04:00 +9°C° 0 mm 2 mps 762 mmHg 83%
    05:00 +9°C° 0 mm 2 mps 761 mmHg 83%
    06:00 +9°C° 0 mm 2 mps 761 mmHg 83%
    07:00 +12°C° 0 mm 2 mps 761 mmHg 78%
    08:00 +13°C° 0 mm 2 mps 760 mmHg 73%
    09:00 +15°C° 0 mm 2 mps 760 mmHg 69%
    10:00 +16°C° 0 mm 3 mps 759 mmHg 66%
    11:00 +18°C° 0 mm 3 mps 759 mmHg 63%
    12:00 +19°C° 0 mm 3 mps 758 mmHg 59%
    13:00 +19°C° 0 mm 3 mps 758 mmHg 62%
    14:00 +19°C° 0 mm 2 mps 757 mmHg 64%
    15:00 +19°C° 0 mm 2 mps 756 mmHg 66%
    16:00 +18°C° 0 mm 2 mps 756 mmHg 71%
    17:00 +17°C° 0 mm 2 mps 756 mmHg 76%
    18:00 +16°C° 0 mm 3 mps 756 mmHg 82%
    19:00 +15°C° 0 mm 2 mps 755 mmHg 83%
    20:00 +15°C° 0 mm 2 mps 755 mmHg 84%
    21:00 +14°C° 0 mm 2 mps 755 mmHg 84%
    22:00 +14°C° 0 mm 2 mps 755 mmHg 85%
    23:00 +14°C° 0 mm 2 mps 754 mmHg 86%

    24 October, Thursday

    Time Temperature Precipitation Wind Pressure Humidity
    00:00 +14°C° 0 mm 2 mps 754 mmHg 87%
    01:00 +13°C° 0 mm 2 mps 754 mmHg 88%
    02:00 +13°C° 0 mm 2 mps 753 mmHg 89%
    03:00 +13°C° 0 mm 2 mps 753 mmHg 90%
    04:00 +13°C° 0 mm 2 mps 753 mmHg 91%
    05:00 +12°C° 0 mm 2 mps 753 mmHg 91%
    06:00 +12°C° 0 mm 2 mps 753 mmHg 92%
    07:00 +13°C° 0 mm 2 mps 753 mmHg 88%
    08:00 +14°C° 0 mm 2 mps 753 mmHg 84%
    09:00 +15°C° 0 mm 2 mps 753 mmHg 80%
    10:00 +16°C° 0 mm 2 mps 753 mmHg 76%
    11:00 +17°C° 0 mm 2 mps 753 mmHg 73%
    12:00 +18°C° 0 mm 2 mps 753 mmHg 69%
    13:00 +19°C° 0 mm 2 mps 753 mmHg 72%
    14:00 +19°C° 0 mm 2 mps 753 mmHg 74%
    15:00 +19°C° 0 mm 2 mps 753 mmHg 76%
    16:00 +18°C° 0 mm 2 mps 754 mmHg 81%
    17:00 +17°C° 0 mm 2 mps 754 mmHg 85%
    18:00 +16°C° 0 mm 1 mps 754 mmHg 89%
    19:00 +15°C° 0 mm 1 mps 755 mmHg 90%
    20:00 +15°C° 0 mm 1 mps 755 mmHg 91%
    21:00 +15°C° 0 mm 1 mps 755 mmHg 92%
    22:00 +14°C° 0 mm 1 mps 756 mmHg 93%
    23:00 +14°C° 0 mm 2 mps 756 mmHg 94%

    25 October, Friday

    Time Temperature Precipitation Wind Pressure Humidity
    00:00 +14°C° 0 mm 2 mps 756 mmHg 94%
    01:00 +14°C° 0 mm 2 mps 756 mmHg 95%
    02:00 +13°C° 0 mm 2 mps 756 mmHg 95%
    03:00 +13°C° 0 mm 2 mps 757 mmHg 96%
    04:00 +13°C° 0 mm 2 mps 757 mmHg 96%
    05:00 +13°C° 0 mm 2 mps 757 mmHg 96%
    06:00 +13°C° 0 mm 1 mps 758 mmHg 95%
    07:00 +14°C° 0 mm 1 mps 758 mmHg 92%
    08:00 +14°C° 0 mm 1 mps 758 mmHg 89%
    09:00 +15°C° 0 mm 1 mps 759 mmHg 85%
    10:00 +16°C° 0 mm 1 mps 759 mmHg 79%
    11:00 +18°C° 0 mm 1 mps 759 mmHg 73%
    12:00 +19°C° 0 mm 1 mps 759 mmHg 67%
    13:00 +19°C° 0 mm 1 mps 759 mmHg 68%
    14:00 +19°C° 0 mm 1 mps 758 mmHg 69%
    15:00 +19°C° 0 mm 1 mps 758 mmHg 70%
    16:00 +18°C° 0 mm 1 mps 758 mmHg 74%
    17:00 +15°C° 0 mm 1 mps 758 mmHg 79%
    18:00 +14°C° 0 mm 1 mps 758 mmHg 83%
    19:00 +14°C° 0 mm 1 mps 758 mmHg 85%
    20:00 +14°C° 0 mm 2 mps 758 mmHg 86%
    21:00 +14°C° 0 mm 2 mps 758 mmHg 87%
    22:00 +12°C° 0 mm 3 mps 758 mmHg 88%
    23:00 +12°C° 0 mm 3 mps 757 mmHg 88%
    Show more